Time,TemperatureF,DewpointF,PressureIn,WindDirection,WindDirectionDegrees,WindSpeedMPH,WindSpeedGustMPH,Humidity,HourlyPrecipIn,Conditions,Clouds,dailyrainin,SoftwareType,DateUTC
2013-01-20 00:00:00,37.1,31.2,29.84,South,175,0.0,2.0,79,0.00,,---,0.07,VWS V14.01,2013-01-20 05:00:00,
2013-01-20 00:02:00,37.2,31.3,29.84,ESE,106,2.0,5.0,79,0.00,,---,0.07,VWS V14.01,2013-01-20 05:02:00,
2013-01-20 00:03:00,37.2,31.3,29.84,SE,146,0.0,5.0,79,0.00,,---,0.07,VWS V14.01,2013-01-20 05:03:00,
2013-01-20 00:05:00,37.2,31.3,29.83,SSE,147,1.0,2.0,79,0.00,,---,0.00,VWS V14.01,2013-01-20 05:05:00,
2013-01-20 00:10:00,37.3,31.4,29.83,South,185,0.0,2.0,79,0.00,,---,0.00,VWS V14.01,2013-01-20 05:10:00,
2013-01-20 00:15:00,37.5,31.6,29.83,South,178,0.0,4.0,79,0.00,,---,0.00,VWS V14.01,2013-01-20 05:15:00,
2013-01-20 00:20:00,37.8,31.6,29.83,SSE,150,2.0,9.0,78,0.00,,---,0.00,VWS V14.01,2013-01-20 05:20:00,
2013-01-20 00:25:00,38.0,31.8,29.83,South,175,7.0,7.0,78,0.00,,---,0.00,VWS V14.01,2013-01-20 05:25:00,
2013-01-20 00:30:00,38.2,32.0,29.83,South,184,5.0,7.0,78,0.00,,---,0.00,VWS V14.01,2013-01-20 05:30:00,
2013-01-20 00:35:00,38.3,31.7,29.82,SSW,201,0.0,5.0,77,0.00,,---,0.00,VWS V14.01,2013-01-20 05:35:00,
2013-01-20 00:40:00,38.5,31.9,29.82,South,188,4.0,4.0,77,0.00,,---,0.00,VWS V14.01,2013-01-20 05:40:00,
2013-01-20 00:45:00,38.7,32.1,29.82,SSW,207,4.0,8.0,77,0.00,,---,0.00,VWS V14.01,2013-01-20 05:45:00,
2013-01-20 00:50:00,38.9,32.0,29.81,SW,232,2.0,6.0,76,0.00,,---,0.00,VWS V14.01,2013-01-20 05:50:00,
2013-01-20 00:55:00,39.0,32.1,29.81,SSE,167,9.0,10.0,76,0.00,,---,0.00,VWS V14.01,2013-01-20 05:55:00,
2013-01-20 01:00:00,39.1,32.2,29.80,South,190,3.0,6.0,76,0.00,,---,0.00,VWS V14.01,2013-01-20 06:00:00,
2013-01-20 01:05:00,39.2,32.3,29.80,SSW,213,6.0,6.0,76,0.00,,---,0.00,VWS V14.01,2013-01-20 06:05:00,
2013-01-20 01:10:00,39.3,32.4,29.80,South,179,5.0,5.0,76,0.00,,---,0.00,VWS V14.01,2013-01-20 06:10:00,
2013-01-20 01:15:00,39.4,32.5,29.80,South,178,6.0,9.0,76,0.00,,---,0.00,VWS V14.01,2013-01-20 06:15:00,
2013-01-20 01:20:00,39.4,32.5,29.80,South,180,3.0,6.0,76,0.00,,---,0.00,VWS V14.01,2013-01-20 06:20:00,
2013-01-20 01:25:00,39.6,32.3,29.80,SW,230,3.0,6.0,75,0.00,,---,0.00,VWS V14.01,2013-01-20 06:25:00,
2013-01-20 01:30:00,39.7,32.4,29.80,SSE,168,4.0,5.0,75,0.00,,---,0.00,VWS V14.01,2013-01-20 06:30:00,
2013-01-20 01:35:00,39.8,32.5,29.79,South,183,4.0,6.0,75,0.00,,---,0.00,VWS V14.01,2013-01-20 06:35:00,
2013-01-20 01:40:00,39.8,32.5,29.79,SE,135,2.0,7.0,75,0.00,,---,0.00,VWS V14.01,2013-01-20 06:40:00,
2013-01-20 01:46:00,39.8,32.2,29.79,SSW,200,1.0,7.0,74,0.00,,---,0.00,VWS V14.01,2013-01-20 06:46:00,
2013-01-20 01:51:00,39.9,32.3,29.79,SW,234,1.0,7.0,74,0.00,,---,0.00,VWS V14.01,2013-01-20 06:51:00,
2013-01-20 01:56:00,40.0,32.4,29.80,SSE,161,1.0,5.0,74,0.00,,---,0.00,VWS V14.01,2013-01-20 06:56:00,
2013-01-20 02:01:00,40.1,32.5,29.79,SSW,209,2.0,7.0,74,0.00,,---,0.00,VWS V14.01,2013-01-20 07:01:00,
2013-01-20 02:06:00,40.2,32.2,29.79,SW,221,2.0,5.0,73,0.00,,---,0.00,VWS V14.01,2013-01-20 07:06:00,
2013-01-20 02:11:00,40.2,32.2,29.79,SSW,202,5.0,7.0,73,0.00,,---,0.00,VWS V14.01,2013-01-20 07:11:00,
2013-01-20 02:16:00,40.3,32.3,29.79,South,178,2.0,7.0,73,0.00,,---,0.00,VWS V14.01,2013-01-20 07:16:00,
2013-01-20 02:21:00,40.4,32.4,29.79,SSE,154,0.0,4.0,73,0.00,,---,0.00,VWS V14.01,2013-01-20 07:21:00,
2013-01-20 02:26:00,40.3,32.3,29.79,South,184,5.0,6.0,73,0.00,,---,0.00,VWS V14.01,2013-01-20 07:26:00,
2013-01-20 02:31:00,40.3,32.3,29.78,SSE,153,1.0,6.0,73,0.00,,---,0.00,VWS V14.01,2013-01-20 07:31:00,
2013-01-20 02:36:00,40.1,32.2,29.78,SSW,200,4.0,4.0,73,0.00,,---,0.00,VWS V14.01,2013-01-20 07:36:00,
2013-01-20 02:41:00,40.0,32.1,29.77,SSW,198,1.0,4.0,73,0.00,,---,0.00,VWS V14.01,2013-01-20 07:41:00,
2013-01-20 02:47:00,39.8,31.9,29.77,South,169,1.0,4.0,73,0.00,,---,0.00,VWS V14.01,2013-01-20 07:47:00,
2013-01-20 02:52:00,39.6,31.7,29.77,SSW,213,2.0,7.0,73,0.00,,---,0.00,VWS V14.01,2013-01-20 07:52:00,
2013-01-20 02:57:00,39.5,31.9,29.76,SW,220,1.0,5.0,74,0.00,,---,0.00,VWS V14.01,2013-01-20 07:57:00,
2013-01-20 03:02:00,39.4,31.8,29.76,South,184,0.0,5.0,74,0.00,,---,0.00,VWS V14.01,2013-01-20 08:02:00,
2013-01-20 03:07:00,39.3,31.7,29.75,SSW,194,0.0,5.0,74,0.00,,---,0.00,VWS V14.01,2013-01-20 08:07:00,
2013-01-20 03:12:00,39.1,31.5,29.74,SE,128,2.0,7.0,74,0.00,,---,0.00,VWS V14.01,2013-01-20 08:12:00,
2013-01-20 03:17:00,39.1,31.5,29.74,SSW,213,3.0,6.0,74,0.00,,---,0.00,VWS V14.01,2013-01-20 08:17:00,
2013-01-20 03:22:00,39.1,31.5,29.74,SSW,197,1.0,8.0,74,0.00,,---,0.00,VWS V14.01,2013-01-20 08:22:00,
2013-01-20 03:27:00,39.1,31.5,29.74,WSW,254,8.0,8.0,74,0.00,,---,0.00,VWS V14.01,2013-01-20 08:27:00,
2013-01-20 03:32:00,39.0,31.4,29.74,South,181,8.0,8.0,74,0.00,,---,0.00,VWS V14.01,2013-01-20 08:32:00,
2013-01-20 03:37:00,38.9,31.3,29.74,SW,225,0.0,5.0,74,0.00,,---,0.00,VWS V14.01,2013-01-20 08:37:00,
2013-01-20 03:42:00,38.9,31.3,29.73,South,172,0.0,4.0,74,0.00,,---,0.00,VWS V14.01,2013-01-20 08:42:00,
2013-01-20 03:47:00,38.8,31.2,29.73,SSW,204,2.0,9.0,74,0.00,,---,0.00,VWS V14.01,2013-01-20 08:47:00,
2013-01-20 03:53:00,38.9,31.3,29.73,SSW,192,0.0,6.0,74,0.00,,---,0.00,VWS V14.01,2013-01-20 08:53:00,
2013-01-20 03:58:00,39.0,31.4,29.72,SSE,159,6.0,9.0,74,0.00,,---,0.00,VWS V14.01,2013-01-20 08:58:00,
2013-01-20 04:03:00,38.9,31.3,29.71,East,101,0.0,7.0,74,0.00,,---,0.00,VWS V14.01,2013-01-20 09:03:00,
2013-01-20 04:08:00,38.9,31.3,29.72,SSW,203,2.0,7.0,74,0.00,,---,0.00,VWS V14.01,2013-01-20 09:08:00,
2013-01-20 04:13:00,38.9,31.3,29.71,SSW,206,1.0,11.0,74,0.00,,---,0.00,VWS V14.01,2013-01-20 09:13:00,
2013-01-20 04:18:00,38.9,31.3,29.71,WSW,238,3.0,8.0,74,0.00,,---,0.00,VWS V14.01,2013-01-20 09:18:00,
2013-01-20 04:23:00,38.9,31.3,29.70,South,189,7.0,8.0,74,0.00,,---,0.00,VWS V14.01,2013-01-20 09:23:00,
2013-01-20 04:28:00,38.7,31.1,29.70,SSW,194,4.0,8.0,74,0.00,,---,0.00,VWS V14.01,2013-01-20 09:28:00,
2013-01-20 04:33:00,38.8,31.6,29.70,SSW,197,2.0,9.0,75,0.00,,---,0.00,VWS V14.01,2013-01-20 09:33:00,
2013-01-20 04:38:00,38.7,31.5,29.69,SSE,148,2.0,8.0,75,0.00,,---,0.00,VWS V14.01,2013-01-20 09:38:00,
2013-01-20 04:43:00,38.7,31.5,29.69,SSW,205,3.0,8.0,75,0.00,,---,0.00,VWS V14.01,2013-01-20 09:43:00,
2013-01-20 04:48:00,38.7,31.5,29.70,SW,221,2.0,8.0,75,0.00,,---,0.00,VWS V14.01,2013-01-20 09:48:00,
2013-01-20 04:53:00,38.9,31.7,29.69,SSE,168,2.0,8.0,75,0.00,,---,0.00,VWS V14.01,2013-01-20 09:53:00,
2013-01-20 04:58:00,38.9,31.7,29.69,SSW,211,5.0,7.0,75,0.00,,---,0.00,VWS V14.01,2013-01-20 09:58:00,
2013-01-20 05:03:00,38.9,31.7,29.68,West,261,7.0,10.0,75,0.00,,---,0.00,VWS V14.01,2013-01-20 10:03:00,
2013-01-20 05:08:00,39.1,31.9,29.68,South,190,5.0,12.0,75,0.00,,---,0.00,VWS V14.01,2013-01-20 10:08:00,
2013-01-20 05:13:00,39.1,31.9,29.68,SSW,209,0.0,9.0,75,0.00,,---,0.00,VWS V14.01,2013-01-20 10:13:00,
2013-01-20 05:19:00,39.1,31.9,29.68,SW,215,3.0,10.0,75,0.00,,---,0.00,VWS V14.01,2013-01-20 10:19:00,
2013-01-20 05:24:00,39.0,32.1,29.67,SSW,196,11.0,11.0,76,0.00,,---,0.00,VWS V14.01,2013-01-20 10:24:00,
2013-01-20 05:29:00,38.9,32.0,29.66,SSE,165,4.0,4.0,76,0.00,,---,0.00,VWS V14.01,2013-01-20 10:29:00,
2013-01-20 05:34:00,38.9,32.0,29.66,SSW,194,9.0,11.0,76,0.00,,---,0.00,VWS V14.01,2013-01-20 10:34:00,
2013-01-20 05:39:00,39.0,32.1,29.65,SSW,198,7.0,7.0,76,0.00,,---,0.00,VWS V14.01,2013-01-20 10:39:00,
2013-01-20 05:44:00,38.9,32.0,29.65,South,171,2.0,2.0,76,0.00,,---,0.00,VWS V14.01,2013-01-20 10:44:00,
2013-01-20 05:49:00,38.9,32.0,29.65,SSW,197,3.0,9.0,76,0.00,,---,0.00,VWS V14.01,2013-01-20 10:49:00,
2013-01-20 05:54:00,38.8,31.9,29.65,South,186,5.0,6.0,76,0.00,,---,0.00,VWS V14.01,2013-01-20 10:54:00,
2013-01-20 05:59:00,38.7,31.8,29.64,WSW,243,1.0,2.0,76,0.00,,---,0.00,VWS V14.01,2013-01-20 10:59:00,
2013-01-20 06:04:00,38.6,32.0,29.64,SSW,198,3.0,9.0,77,0.00,,---,0.00,VWS V14.01,2013-01-20 11:04:00,
2013-01-20 06:09:00,38.3,31.7,29.64,ESE,117,1.0,5.0,77,0.00,,---,0.00,VWS V14.01,2013-01-20 11:09:00,
2013-01-20 06:15:00,38.2,31.6,29.64,SSE,153,7.0,10.0,77,0.00,,---,0.00,VWS V14.01,2013-01-20 11:15:00,
2013-01-20 06:20:00,38.2,31.6,29.63,SSW,205,3.0,5.0,77,0.00,,---,0.00,VWS V14.01,2013-01-20 11:20:00,
2013-01-20 06:25:00,38.2,31.6,29.63,South,191,1.0,2.0,77,0.00,,---,0.00,VWS V14.01,2013-01-20 11:25:00,
2013-01-20 06:30:00,38.1,31.5,29.63,SSE,166,1.0,6.0,77,0.00,,---,0.00,VWS V14.01,2013-01-20 11:30:00,
2013-01-20 06:35:00,38.1,31.5,29.63,SSW,208,2.0,6.0,77,0.00,,---,0.00,VWS V14.01,2013-01-20 11:35:00,
2013-01-20 06:40:00,38.0,31.4,29.62,SSE,163,4.0,8.0,77,0.00,,---,0.00,VWS V14.01,2013-01-20 11:40:00,
2013-01-20 06:45:00,38.0,31.4,29.62,South,183,1.0,6.0,77,0.00,,---,0.00,VWS V14.01,2013-01-20 11:45:00,
2013-01-20 06:50:00,38.0,31.4,29.62,South,173,1.0,5.0,77,0.00,,---,0.00,VWS V14.01,2013-01-20 11:50:00,
2013-01-20 06:55:00,38.1,31.5,29.62,WSW,248,9.0,9.0,77,0.00,,---,0.00,VWS V14.01,2013-01-20 11:55:00,
2013-01-20 07:00:00,38.2,31.6,29.62,SW,216,1.0,7.0,77,0.00,,---,0.00,VWS V14.01,2013-01-20 12:00:00,
2013-01-20 07:05:00,38.2,31.3,29.62,SSE,157,4.0,4.0,76,0.00,,---,0.00,VWS V14.01,2013-01-20 12:05:00,
2013-01-20 07:10:00,38.3,31.4,29.62,SSE,167,1.0,7.0,76,0.00,,---,0.00,VWS V14.01,2013-01-20 12:10:00,
2013-01-20 07:15:00,38.4,31.5,29.62,SW,236,0.0,4.0,76,0.00,,---,0.00,VWS V14.01,2013-01-20 12:15:00,
2013-01-20 07:20:00,38.4,31.5,29.61,South,190,0.0,6.0,76,0.00,,---,0.00,VWS V14.01,2013-01-20 12:20:00,
2013-01-20 07:25:00,38.5,31.6,29.60,SSW,196,2.0,4.0,76,0.00,,---,0.00,VWS V14.01,2013-01-20 12:25:00,
2013-01-20 07:31:00,38.6,31.7,29.61,SSE,159,1.0,5.0,76,0.00,,---,0.00,VWS V14.01,2013-01-20 12:31:00,
2013-01-20 07:36:00,38.8,31.6,29.59,West,273,3.0,12.0,75,0.00,,---,0.00,VWS V14.01,2013-01-20 12:36:00,
2013-01-20 07:41:00,39.0,31.4,29.59,SSE,150,4.0,9.0,74,0.00,,---,0.00,VWS V14.01,2013-01-20 12:41:00,
2013-01-20 07:46:00,39.0,31.4,29.59,South,175,2.0,10.0,74,0.00,,---,0.00,VWS V14.01,2013-01-20 12:46:00,
2013-01-20 07:51:00,38.9,31.3,29.59,WSW,247,8.0,9.0,74,0.00,,---,0.00,VWS V14.01,2013-01-20 12:51:00,
2013-01-20 07:56:00,39.0,31.4,29.58,SSW,192,10.0,10.0,74,0.00,,---,0.00,VWS V14.01,2013-01-20 12:56:00,
2013-01-20 08:01:00,39.2,31.6,29.57,South,184,1.0,15.0,74,0.00,,---,0.00,VWS V14.01,2013-01-20 13:01:00,
2013-01-20 08:06:00,39.4,31.5,29.58,SSE,163,6.0,10.0,73,0.00,,---,0.00,VWS V14.01,2013-01-20 13:06:00,
2013-01-20 08:11:00,39.7,31.8,29.58,South,173,8.0,14.0,73,0.00,,---,0.00,VWS V14.01,2013-01-20 13:11:00,
2013-01-20 08:16:00,39.9,31.6,29.59,SSW,204,6.0,14.0,72,0.00,,---,0.00,VWS V14.01,2013-01-20 13:16:00,
2013-01-20 08:21:00,40.1,31.8,29.58,South,186,2.0,8.0,72,0.00,,---,0.00,VWS V14.01,2013-01-20 13:21:00,
2013-01-20 08:26:00,40.4,31.8,29.58,SW,226,3.0,13.0,71,0.00,,---,0.00,VWS V14.01,2013-01-20 13:26:00,
2013-01-20 08:31:00,40.7,31.7,29.58,West,275,0.0,10.0,70,0.00,,---,0.00,VWS V14.01,2013-01-20 13:31:00,
2013-01-20 08:36:00,41.0,31.6,29.59,WSW,239,10.0,12.0,69,0.00,,---,0.00,VWS V14.01,2013-01-20 13:36:00,
2013-01-20 08:41:00,41.3,31.5,29.58,SE,145,11.0,17.0,68,0.00,,---,0.00,VWS V14.01,2013-01-20 13:41:00,
2013-01-20 08:46:00,41.6,31.8,29.58,SW,215,4.0,10.0,68,0.00,,---,0.00,VWS V14.01,2013-01-20 13:46:00,
2013-01-20 08:51:00,41.8,31.7,29.58,SSW,211,12.0,12.0,67,0.00,,---,0.00,VWS V14.01,2013-01-20 13:51:00,
2013-01-20 08:56:00,42.0,31.5,29.58,WSW,252,10.0,12.0,66,0.00,,---,0.00,VWS V14.01,2013-01-20 13:56:00,
2013-01-20 09:01:00,42.4,31.5,29.58,SSW,213,7.0,16.0,65,0.00,,---,0.00,VWS V14.01,2013-01-20 14:01:00,
2013-01-20 09:06:00,42.8,31.5,29.58,West,279,5.0,13.0,64,0.00,,---,0.00,VWS V14.01,2013-01-20 14:06:00,
2013-01-20 09:11:00,43.2,31.9,29.58,SSW,199,8.0,16.0,64,0.00,,---,0.00,VWS V14.01,2013-01-20 14:11:00,
2013-01-20 09:17:00,43.6,31.9,29.58,WSW,246,5.0,22.0,63,0.00,,---,0.00,VWS V14.01,2013-01-20 14:17:00,
2013-01-20 09:22:00,44.0,31.4,29.58,SSW,200,8.0,22.0,61,0.00,,---,0.00,VWS V14.01,2013-01-20 14:22:00,
2013-01-20 09:27:00,44.3,31.7,29.58,West,261,7.0,17.0,61,0.00,,---,0.00,VWS V14.01,2013-01-20 14:27:00,
2013-01-20 09:32:00,44.8,31.4,29.57,South,178,8.0,15.0,59,0.00,,---,0.00,VWS V14.01,2013-01-20 14:32:00,
2013-01-20 09:37:00,45.2,31.3,29.57,WSW,242,19.0,19.0,58,0.00,,---,0.00,VWS V14.01,2013-01-20 14:37:00,
2013-01-20 09:42:00,45.8,31.5,29.57,South,188,5.0,19.0,57,0.00,,---,0.00,VWS V14.01,2013-01-20 14:42:00,
2013-01-20 09:47:00,46.1,31.7,29.57,SW,215,6.0,22.0,57,0.00,,---,0.00,VWS V14.01,2013-01-20 14:47:00,
2013-01-20 09:52:00,46.6,31.3,29.58,WSW,243,17.0,26.0,55,0.00,,---,0.00,VWS V14.01,2013-01-20 14:52:00,
2013-01-20 09:57:00,46.7,31.0,29.57,WNW,282,8.0,24.0,54,0.00,,---,0.00,VWS V14.01,2013-01-20 14:57:00,
2013-01-20 10:02:00,46.8,31.5,29.57,SSW,205,7.0,20.0,55,0.00,,---,0.00,VWS V14.01,2013-01-20 15:02:00,
2013-01-20 10:07:00,46.9,31.6,29.57,SSW,200,7.0,22.0,55,0.00,,---,0.00,VWS V14.01,2013-01-20 15:07:00,
2013-01-20 10:13:00,47.1,31.3,29.56,South,188,2.0,18.0,54,0.00,,---,0.00,VWS V14.01,2013-01-20 15:13:00,
2013-01-20 10:18:00,47.2,31.4,29.57,SSW,196,14.0,16.0,54,0.00,,---,0.00,VWS V14.01,2013-01-20 15:18:00,
2013-01-20 10:23:00,47.4,31.6,29.57,South,176,13.0,18.0,54,0.00,,---,0.00,VWS V14.01,2013-01-20 15:23:00,
2013-01-20 10:28:00,47.7,31.4,29.57,WSW,251,7.0,15.0,53,0.00,,---,0.00,VWS V14.01,2013-01-20 15:28:00,
2013-01-20 10:33:00,47.8,31.0,29.56,SSW,193,9.0,24.0,52,0.00,,---,0.00,VWS V14.01,2013-01-20 15:33:00,
2013-01-20 10:38:00,47.9,31.1,29.55,SW,217,9.0,22.0,52,0.00,,---,0.00,VWS V14.01,2013-01-20 15:38:00,
2013-01-20 10:43:00,48.3,32.0,29.54,SSW,202,5.0,21.0,53,0.00,,---,0.00,VWS V14.01,2013-01-20 15:43:00,
2013-01-20 10:48:00,48.9,32.1,29.54,SW,225,13.0,18.0,52,0.00,,---,0.00,VWS V14.01,2013-01-20 15:48:00,
2013-01-20 10:53:00,49.2,31.9,29.53,WSW,252,10.0,22.0,51,0.00,,---,0.00,VWS V14.01,2013-01-20 15:53:00,
2013-01-20 10:58:00,49.4,32.0,29.52,West,260,8.0,15.0,51,0.00,,---,0.00,VWS V14.01,2013-01-20 15:58:00,
2013-01-20 11:04:00,49.7,31.8,29.52,SSW,206,4.0,19.0,50,0.00,,---,0.00,VWS V14.01,2013-01-20 16:04:00,
2013-01-20 11:09:00,50.0,32.1,29.52,WSW,242,6.0,14.0,50,0.00,,---,0.00,VWS V14.01,2013-01-20 16:09:00,
2013-01-20 11:14:00,50.4,32.0,29.52,SW,225,10.0,20.0,49,0.00,,---,0.00,VWS V14.01,2013-01-20 16:14:00,
2013-01-20 11:19:00,50.8,31.8,29.51,West,265,6.0,7.0,48,0.00,,---,0.00,VWS V14.01,2013-01-20 16:19:00,
2013-01-20 11:24:00,51.2,31.7,29.51,SW,234,16.0,16.0,47,0.00,,---,0.00,VWS V14.01,2013-01-20 16:24:00,
2013-01-20 11:29:00,51.4,31.9,29.51,SW,223,8.0,18.0,47,0.00,,---,0.00,VWS V14.01,2013-01-20 16:29:00,
2013-01-20 11:34:00,51.5,31.4,29.50,SSW,204,10.0,22.0,46,0.00,,---,0.00,VWS V14.01,2013-01-20 16:34:00,
2013-01-20 11:39:00,51.8,31.7,29.50,SSW,207,9.0,22.0,46,0.00,,---,0.00,VWS V14.01,2013-01-20 16:39:00,
2013-01-20 11:44:00,51.8,31.1,29.51,SSW,207,8.0,24.0,45,0.00,,---,0.00,VWS V14.01,2013-01-20 16:44:00,
2013-01-20 11:49:00,51.8,31.1,29.50,SSW,213,13.0,22.0,45,0.00,,---,0.00,VWS V14.01,2013-01-20 16:49:00,
2013-01-20 11:54:00,52.1,32.0,29.49,WSW,239,12.0,23.0,46,0.00,,---,0.00,VWS V14.01,2013-01-20 16:54:00,
2013-01-20 12:00:00,52.2,31.5,29.50,SW,232,26.0,26.0,45,0.00,,---,0.00,VWS V14.01,2013-01-20 17:00:00,
2013-01-20 12:05:00,52.2,31.5,29.50,SW,235,7.0,18.0,45,0.00,,---,0.00,VWS V14.01,2013-01-20 17:05:00,
2013-01-20 12:10:00,52.3,31.0,29.50,SW,236,18.0,28.0,44,0.00,,---,0.00,VWS V14.01,2013-01-20 17:10:00,
2013-01-20 12:15:00,52.5,31.2,29.50,West,259,11.0,17.0,44,0.00,,---,0.00,VWS V14.01,2013-01-20 17:15:00,
2013-01-20 12:20:00,52.4,31.1,29.50,WSW,238,14.0,22.0,44,0.00,,---,0.00,VWS V14.01,2013-01-20 17:20:00,
2013-01-20 12:25:00,52.2,31.5,29.50,SSW,209,5.0,22.0,45,0.00,,---,0.00,VWS V14.01,2013-01-20 17:25:00,
2013-01-20 12:30:00,51.8,31.1,29.50,WSW,253,8.0,19.0,45,0.00,,---,0.00,VWS V14.01,2013-01-20 17:30:00,
2013-01-20 12:35:00,51.4,31.3,29.50,SW,226,7.0,21.0,46,0.00,,---,0.00,VWS V14.01,2013-01-20 17:35:00,
2013-01-20 12:40:00,50.9,30.9,29.50,WSW,246,9.0,24.0,46,0.00,,---,0.00,VWS V14.01,2013-01-20 17:40:00,
2013-01-20 12:45:00,50.5,30.5,29.50,WSW,256,12.0,14.0,46,0.00,,---,0.00,VWS V14.01,2013-01-20 17:45:00,
2013-01-20 12:50:00,50.3,30.9,29.50,WSW,238,10.0,20.0,47,0.00,,---,0.00,VWS V14.01,2013-01-20 17:50:00,
2013-01-20 12:56:00,50.0,30.6,29.50,WNW,290,7.0,20.0,47,0.00,,---,0.00,VWS V14.01,2013-01-20 17:56:00,
2013-01-20 13:01:00,49.8,30.4,29.51,SW,236,13.0,17.0,47,0.00,,---,0.00,VWS V14.01,2013-01-20 18:01:00,
2013-01-20 13:06:00,49.5,31.6,29.51,WSW,248,5.0,17.0,50,0.00,,---,0.00,VWS V14.01,2013-01-20 18:06:00,
2013-01-20 13:11:00,49.2,30.9,29.52,West,275,14.0,17.0,49,0.00,,---,0.00,VWS V14.01,2013-01-20 18:11:00,
2013-01-20 13:16:00,49.1,31.3,29.52,West,273,15.0,27.0,50,0.00,,---,0.00,VWS V14.01,2013-01-20 18:16:00,
2013-01-20 13:21:00,48.9,30.6,29.53,WSW,254,2.0,21.0,49,0.00,,---,0.00,VWS V14.01,2013-01-20 18:21:00,
2013-01-20 13:26:00,48.8,31.0,29.54,SW,216,2.0,15.0,50,0.00,,---,0.00,VWS V14.01,2013-01-20 18:26:00,
2013-01-20 13:32:00,48.2,31.4,29.54,NNW,340,6.0,21.0,52,0.00,,---,0.00,VWS V14.01,2013-01-20 18:32:00,
2013-01-20 13:37:00,47.3,31.5,29.55,WSW,258,13.0,23.0,54,0.00,,---,0.00,VWS V14.01,2013-01-20 18:37:00,
2013-01-20 13:42:00,46.6,31.3,29.55,West,259,8.0,15.0,55,0.00,,---,0.00,VWS V14.01,2013-01-20 18:42:00,
2013-01-20 13:47:00,46.0,31.6,29.55,WNW,289,4.0,18.0,57,0.00,,---,0.00,VWS V14.01,2013-01-20 18:47:00,
2013-01-20 13:52:00,45.5,31.2,29.56,West,271,4.0,19.0,57,0.00,,---,0.00,VWS V14.01,2013-01-20 18:52:00,
2013-01-20 13:57:00,45.2,31.3,29.57,WNW,282,12.0,16.0,58,0.00,,---,0.00,VWS V14.01,2013-01-20 18:57:00,
2013-01-20 14:02:00,44.8,30.9,29.57,North,360,6.0,24.0,58,0.00,,---,0.00,VWS V14.01,2013-01-20 19:02:00,
2013-01-20 14:07:00,44.5,31.1,29.57,West,259,4.0,14.0,59,0.00,,---,0.00,VWS V14.01,2013-01-20 19:07:00,
2013-01-20 14:12:00,44.2,31.2,29.58,SW,234,9.0,18.0,60,0.00,,---,0.00,VWS V14.01,2013-01-20 19:12:00,
2013-01-20 14:18:00,44.1,29.9,29.58,WSW,250,12.0,21.0,57,0.00,,---,0.00,VWS V14.01,2013-01-20 19:18:00,
2013-01-20 14:23:00,44.2,30.4,29.58,WSW,242,5.0,17.0,58,0.00,,---,0.00,VWS V14.01,2013-01-20 19:23:00,
2013-01-20 14:28:00,44.2,30.0,29.58,West,261,5.0,15.0,57,0.00,,---,0.00,VWS V14.01,2013-01-20 19:28:00,
2013-01-20 14:33:00,44.2,28.6,29.58,NW,322,1.0,18.0,54,0.00,,---,0.00,VWS V14.01,2013-01-20 19:33:00,
2013-01-20 14:38:00,44.4,27.4,29.58,WSW,239,12.0,18.0,51,0.00,,---,0.00,VWS V14.01,2013-01-20 19:38:00,
2013-01-20 14:43:00,44.7,27.7,29.59,West,263,16.0,16.0,51,0.00,,---,0.00,VWS V14.01,2013-01-20 19:43:00,
2013-01-20 14:48:00,44.8,27.3,29.59,West,275,4.0,22.0,50,0.00,,---,0.00,VWS V14.01,2013-01-20 19:48:00,
2013-01-20 14:53:00,44.9,27.4,29.59,NW,315,6.0,21.0,50,0.00,,---,0.00,VWS V14.01,2013-01-20 19:53:00,
2013-01-20 14:58:00,44.7,27.2,29.59,West,265,6.0,23.0,50,0.00,,---,0.00,VWS V14.01,2013-01-20 19:58:00,
2013-01-20 15:04:00,44.7,26.7,29.59,West,275,11.0,16.0,49,0.00,,---,0.00,VWS V14.01,2013-01-20 20:04:00,
2013-01-20 15:09:00,44.7,27.2,29.60,West,266,10.0,17.0,50,0.00,,---,0.00,VWS V14.01,2013-01-20 20:09:00,
2013-01-20 15:14:00,45.0,27.0,29.60,WSW,256,8.0,20.0,49,0.00,,---,0.00,VWS V14.01,2013-01-20 20:14:00,
2013-01-20 15:19:00,45.0,26.5,29.60,WSW,246,3.0,13.0,48,0.00,,---,0.00,VWS V14.01,2013-01-20 20:19:00,
2013-01-20 15:24:00,44.9,26.4,29.60,WSW,257,4.0,20.0,48,0.00,,---,0.00,VWS V14.01,2013-01-20 20:24:00,
2013-01-20 15:29:00,44.9,26.9,29.59,SW,221,2.0,12.0,49,0.00,,---,0.00,VWS V14.01,2013-01-20 20:29:00,
2013-01-20 15:34:00,44.9,26.4,29.60,NW,304,5.0,13.0,48,0.00,,---,0.00,VWS V14.01,2013-01-20 20:34:00,
2013-01-20 15:39:00,44.9,25.9,29.60,WNW,283,7.0,14.0,47,0.00,,---,0.00,VWS V14.01,2013-01-20 20:39:00,
2013-01-20 15:43:00,44.9,25.4,29.60,WNW,290,11.0,14.0,46,0.00,,---,0.00,VWS V14.01,2013-01-20 20:43:00,
2013-01-20 15:49:00,44.9,24.9,29.60,WSW,245,5.0,16.0,45,0.00,,---,0.00,VWS V14.01,2013-01-20 20:49:00,
2013-01-20 15:54:00,44.7,25.7,29.60,SW,221,15.0,19.0,47,0.00,,---,0.00,VWS V14.01,2013-01-20 20:54:00,
2013-01-20 15:59:00,44.5,22.9,29.61,WSW,246,11.0,11.0,42,0.00,,---,0.00,VWS V14.01,2013-01-20 20:59:00,
2013-01-20 16:04:00,44.3,20.9,29.62,West,264,7.0,8.0,39,0.00,,---,0.00,VWS V14.01,2013-01-20 21:04:00,
2013-01-20 16:09:00,44.2,20.2,29.62,SW,232,9.0,11.0,38,0.00,,---,0.00,VWS V14.01,2013-01-20 21:09:00,
2013-01-20 16:14:00,43.9,20.0,29.63,West,264,5.0,8.0,38,0.00,,---,0.00,VWS V14.01,2013-01-20 21:14:00,
2013-01-20 16:19:00,43.7,18.5,29.63,WSW,253,8.0,10.0,36,0.00,,---,0.00,VWS V14.01,2013-01-20 21:19:00,
2013-01-20 16:24:00,43.4,16.9,29.64,WNW,286,5.0,14.0,34,0.00,,---,0.00,VWS V14.01,2013-01-20 21:24:00,
2013-01-20 16:29:00,43.3,17.5,29.65,WNW,302,7.0,7.0,35,0.00,,---,0.00,VWS V14.01,2013-01-20 21:29:00,
2013-01-20 16:34:00,43.1,18.0,29.65,WNW,288,1.0,10.0,36,0.00,,---,0.00,VWS V14.01,2013-01-20 21:34:00,
2013-01-20 16:39:00,42.6,18.2,29.65,North,360,2.0,13.0,37,0.00,,---,0.00,VWS V14.01,2013-01-20 21:39:00,
2013-01-20 16:44:00,42.1,17.7,29.66,WNW,299,17.0,17.0,37,0.00,,---,0.00,VWS V14.01,2013-01-20 21:44:00,
2013-01-20 16:49:00,41.9,16.9,29.67,NW,309,2.0,8.0,36,0.00,,---,0.00,VWS V14.01,2013-01-20 21:49:00,
2013-01-20 16:54:00,41.4,17.7,29.67,West,274,2.0,11.0,38,0.00,,---,0.00,VWS V14.01,2013-01-20 21:54:00,
2013-01-20 16:59:00,41.0,17.4,29.67,NNW,336,9.0,18.0,38,0.00,,---,0.00,VWS V14.01,2013-01-20 21:59:00,
2013-01-20 17:04:00,40.7,17.7,29.68,NW,306,9.0,9.0,39,0.00,,---,0.00,VWS V14.01,2013-01-20 22:04:00,
2013-01-20 17:10:00,40.3,17.9,29.69,West,275,6.0,10.0,40,0.00,,---,0.00,VWS V14.01,2013-01-20 22:10:00,
2013-01-20 17:15:00,39.8,18.0,29.69,NW,306,9.0,17.0,41,0.00,,---,0.00,VWS V14.01,2013-01-20 22:15:00,
2013-01-20 17:20:00,39.3,18.1,29.69,NW,308,12.0,22.0,42,0.00,,---,0.00,VWS V14.01,2013-01-20 22:20:00,
2013-01-20 17:25:00,38.8,18.2,29.70,NW,323,10.0,12.0,43,0.00,,---,0.00,VWS V14.01,2013-01-20 22:25:00,
2013-01-20 17:30:00,38.1,18.6,29.71,WNW,288,5.0,13.0,45,0.00,,---,0.00,VWS V14.01,2013-01-20 22:30:00,
2013-01-20 17:35:00,37.6,18.2,29.72,West,275,7.0,22.0,45,0.00,,---,0.00,VWS V14.01,2013-01-20 22:35:00,
2013-01-20 17:40:00,37.2,18.3,29.71,WNW,290,8.0,17.0,46,0.00,,---,0.00,VWS V14.01,2013-01-20 22:40:00,
2013-01-20 17:45:00,37.0,18.2,29.72,WSW,244,14.0,15.0,46,0.00,,---,0.00,VWS V14.01,2013-01-20 22:45:00,
2013-01-20 17:50:00,36.7,18.4,29.72,WSW,246,10.0,14.0,47,0.00,,---,0.00,VWS V14.01,2013-01-20 22:50:00,
2013-01-20 17:55:00,36.4,18.1,29.73,WSW,237,2.0,18.0,47,0.00,,---,0.00,VWS V14.01,2013-01-20 22:55:00,
2013-01-20 18:00:00,36.1,18.3,29.72,NNW,337,9.0,14.0,48,0.00,,---,0.00,VWS V14.01,2013-01-20 23:00:00,
2013-01-20 18:05:00,35.8,18.0,29.73,WSW,254,7.0,13.0,48,0.00,,---,0.00,VWS V14.01,2013-01-20 23:05:00,
2013-01-20 18:10:00,35.6,17.9,29.73,NW,305,3.0,8.0,48,0.00,,---,0.00,VWS V14.01,2013-01-20 23:10:00,
2013-01-20 18:15:00,35.5,17.3,29.74,WNW,286,4.0,15.0,47,0.00,,---,0.00,VWS V14.01,2013-01-20 23:15:00,
2013-01-20 18:20:00,35.3,17.6,29.74,West,264,8.0,9.0,48,0.00,,---,0.00,VWS V14.01,2013-01-20 23:20:00,
2013-01-20 18:25:00,35.2,17.0,29.74,WNW,290,3.0,8.0,47,0.00,,---,0.00,VWS V14.01,2013-01-20 23:25:00,
2013-01-20 18:30:00,35.0,16.8,29.75,WNW,296,7.0,15.0,47,0.00,,---,0.00,VWS V14.01,2013-01-20 23:30:00,
2013-01-20 18:35:00,34.7,16.5,29.75,West,281,5.0,18.0,47,0.00,,---,0.00,VWS V14.01,2013-01-20 23:35:00,
2013-01-20 18:40:00,34.4,15.8,29.75,NW,311,8.0,24.0,46,0.00,,---,0.00,VWS V14.01,2013-01-20 23:40:00,
2013-01-20 18:45:00,34.4,16.3,29.76,WNW,296,5.0,14.0,47,0.00,,---,0.00,VWS V14.01,2013-01-20 23:45:00,
2013-01-20 18:51:00,34.1,15.0,29.76,WSW,253,5.0,10.0,45,0.00,,---,0.00,VWS V14.01,2013-01-20 23:51:00,
2013-01-20 18:56:00,33.9,14.8,29.77,WNW,303,3.0,19.0,45,0.00,,---,0.00,VWS V14.01,2013-01-20 23:56:00,
2013-01-20 19:01:00,33.7,15.1,29.77,West,274,9.0,17.0,46,0.00,,---,0.00,VWS V14.01,2013-01-21 00:01:00,
2013-01-20 19:06:00,33.4,14.9,29.77,WNW,288,4.0,16.0,46,0.00,,---,0.00,VWS V14.01,2013-01-21 00:06:00,
2013-01-20 19:11:00,33.2,14.7,29.77,NW,313,7.0,24.0,46,0.00,,---,0.00,VWS V14.01,2013-01-21 00:11:00,
2013-01-20 19:16:00,33.0,15.0,29.77,NNW,327,5.0,14.0,47,0.00,,---,0.00,VWS V14.01,2013-01-21 00:16:00,
2013-01-20 19:21:00,32.8,15.3,29.77,West,279,1.0,13.0,48,0.00,,---,0.00,VWS V14.01,2013-01-21 00:21:00,
2013-01-20 19:26:00,32.5,14.5,29.77,WNW,292,14.0,20.0,47,0.00,,---,0.00,VWS V14.01,2013-01-21 00:26:00,
2013-01-20 19:32:00,32.4,14.9,29.78,West,281,8.0,22.0,48,0.00,,---,0.00,VWS V14.01,2013-01-21 00:32:00,
2013-01-20 19:37:00,32.3,14.8,29.78,WSW,256,2.0,13.0,48,0.00,,---,0.00,VWS V14.01,2013-01-21 00:37:00,
2013-01-20 19:42:00,32.0,15.0,29.78,WSW,241,7.0,10.0,49,0.00,,---,0.00,VWS V14.01,2013-01-21 00:42:00,
2013-01-20 19:47:00,31.7,14.7,29.78,West,271,7.0,15.0,49,0.00,,---,0.00,VWS V14.01,2013-01-21 00:47:00,
2013-01-20 19:52:00,31.6,15.6,29.79,SW,233,6.0,12.0,51,0.00,,---,0.00,VWS V14.01,2013-01-21 00:52:00,
2013-01-20 19:57:00,31.3,14.4,29.79,West,261,11.0,27.0,49,0.00,,---,0.00,VWS V14.01,2013-01-21 00:57:00,
2013-01-20 20:02:00,31.2,13.3,29.80,West,271,8.0,26.0,47,0.00,,---,0.00,VWS V14.01,2013-01-21 01:02:00,
2013-01-20 20:07:00,31.1,13.2,29.80,WNW,301,8.0,25.0,47,0.00,,---,0.00,VWS V14.01,2013-01-21 01:07:00,
2013-01-20 20:12:00,30.9,12.6,29.80,SW,232,9.0,24.0,46,0.00,,---,0.00,VWS V14.01,2013-01-21 01:12:00,
2013-01-20 20:17:00,30.7,12.9,29.81,WNW,291,9.0,27.0,47,0.00,,---,0.00,VWS V14.01,2013-01-21 01:17:00,
2013-01-20 20:22:00,30.5,12.2,29.81,West,279,11.0,21.0,46,0.00,,---,0.00,VWS V14.01,2013-01-21 01:22:00,
2013-01-20 20:27:00,30.4,12.1,29.81,West,263,3.0,19.0,46,0.00,,---,0.00,VWS V14.01,2013-01-21 01:27:00,
2013-01-20 20:32:00,30.3,12.0,29.82,SW,236,12.0,17.0,46,0.00,,---,0.00,VWS V14.01,2013-01-21 01:32:00,
2013-01-20 20:37:00,30.2,11.9,29.82,NW,316,6.0,24.0,46,0.00,,---,0.00,VWS V14.01,2013-01-21 01:37:00,
2013-01-20 20:43:00,30.1,11.8,29.82,WNW,283,6.0,21.0,46,0.00,,---,0.00,VWS V14.01,2013-01-21 01:43:00,
2013-01-20 20:48:00,30.0,11.7,29.83,NW,305,6.0,23.0,46,0.00,,---,0.00,VWS V14.01,2013-01-21 01:48:00,
2013-01-20 20:53:00,29.9,12.1,29.83,West,277,19.0,19.0,47,0.00,,---,0.00,VWS V14.01,2013-01-21 01:53:00,
2013-01-20 20:58:00,29.9,12.1,29.84,NNW,336,4.0,24.0,47,0.00,,---,0.00,VWS V14.01,2013-01-21 01:58:00,
2013-01-20 21:03:00,29.8,12.5,29.84,North,9,2.0,12.0,48,0.00,,---,0.00,VWS V14.01,2013-01-21 02:03:00,
2013-01-20 21:08:00,29.6,12.3,29.84,West,275,4.0,15.0,48,0.00,,---,0.00,VWS V14.01,2013-01-21 02:08:00,
2013-01-20 21:13:00,29.5,12.2,29.84,SW,234,14.0,17.0,48,0.00,,---,0.00,VWS V14.01,2013-01-21 02:13:00,
2013-01-20 21:18:00,29.4,12.1,29.84,WNW,289,8.0,14.0,48,0.00,,---,0.00,VWS V14.01,2013-01-21 02:18:00,
2013-01-20 21:23:00,29.4,12.1,29.85,SW,229,3.0,22.0,48,0.00,,---,0.00,VWS V14.01,2013-01-21 02:23:00,
2013-01-20 21:28:00,29.3,12.1,29.85,SSW,197,16.0,16.0,48,0.00,,---,0.00,VWS V14.01,2013-01-21 02:28:00,
2013-01-20 21:33:00,29.2,12.4,29.85,West,259,6.0,18.0,49,0.00,,---,0.00,VWS V14.01,2013-01-21 02:33:00,
2013-01-20 21:39:00,29.1,13.2,29.85,SSW,198,4.0,14.0,51,0.00,,---,0.00,VWS V14.01,2013-01-21 02:39:00,
2013-01-20 21:44:00,29.0,12.2,29.84,WNW,284,3.0,14.0,49,0.00,,---,0.00,VWS V14.01,2013-01-21 02:44:00,
2013-01-20 21:49:00,28.9,12.1,29.85,West,278,9.0,15.0,49,0.00,,---,0.00,VWS V14.01,2013-01-21 02:49:00,
2013-01-20 21:54:00,28.9,12.1,29.85,WSW,258,7.0,14.0,49,0.00,,---,0.00,VWS V14.01,2013-01-21 02:54:00,
2013-01-20 21:59:00,28.8,12.5,29.85,SW,232,6.0,12.0,50,0.00,,---,0.00,VWS V14.01,2013-01-21 02:59:00,
2013-01-20 22:04:00,28.7,12.0,29.86,SW,225,6.0,18.0,49,0.00,,---,0.00,VWS V14.01,2013-01-21 03:04:00,
2013-01-20 22:09:00,28.7,12.4,29.86,WSW,254,4.0,14.0,50,0.00,,---,0.00,VWS V14.01,2013-01-21 03:09:00,
2013-01-20 22:14:00,28.7,12.4,29.86,NW,318,8.0,12.0,50,0.00,,---,0.00,VWS V14.01,2013-01-21 03:14:00,
2013-01-20 22:19:00,28.6,12.3,29.86,WSW,255,9.0,10.0,50,0.00,,---,0.00,VWS V14.01,2013-01-21 03:19:00,
2013-01-20 22:24:00,28.6,12.3,29.86,WNW,289,2.0,3.0,50,0.00,,---,0.00,VWS V14.01,2013-01-21 03:24:00,
2013-01-20 22:29:00,28.5,12.2,29.87,WSW,249,3.0,3.0,50,0.00,,---,0.00,VWS V14.01,2013-01-21 03:29:00,
2013-01-20 22:34:00,28.4,12.1,29.87,West,274,7.0,7.0,50,0.00,,---,0.00,VWS V14.01,2013-01-21 03:34:00,
2013-01-20 22:39:00,28.4,13.0,29.87,SW,231,4.0,4.0,52,0.00,,---,0.00,VWS V14.01,2013-01-21 03:39:00,
2013-01-20 22:44:00,28.3,13.4,29.87,SW,225,2.0,4.0,53,0.00,,---,0.00,VWS V14.01,2013-01-21 03:44:00,
2013-01-20 22:49:00,28.3,12.9,29.88,West,259,10.0,10.0,52,0.00,,---,0.00,VWS V14.01,2013-01-21 03:49:00,
2013-01-20 22:54:00,28.2,13.3,29.87,WSW,245,7.0,11.0,53,0.00,,---,0.00,VWS V14.01,2013-01-21 03:54:00,
2013-01-20 22:59:00,28.2,12.9,29.87,West,275,4.0,7.0,52,0.00,,---,0.00,VWS V14.01,2013-01-21 03:59:00,
2013-01-20 23:04:00,28.2,13.3,29.87,West,265,5.0,5.0,53,0.00,,---,0.00,VWS V14.01,2013-01-21 04:04:00,
2013-01-20 23:09:00,28.1,14.0,29.88,North,360,7.0,10.0,55,0.00,,---,0.00,VWS V14.01,2013-01-21 04:09:00,
2013-01-20 23:14:00,28.0,14.3,29.88,NW,319,9.0,9.0,56,0.00,,---,0.00,VWS V14.01,2013-01-21 04:14:00,
2013-01-20 23:20:00,27.9,14.6,29.88,West,272,4.0,5.0,57,0.00,,---,0.00,VWS V14.01,2013-01-21 04:20:00,
2013-01-20 23:25:00,27.9,14.6,29.88,NW,317,7.0,10.0,57,0.00,,---,0.00,VWS V14.01,2013-01-21 04:25:00,
2013-01-20 23:30:00,27.7,14.9,29.88,West,281,8.0,13.0,58,0.00,,---,0.00,VWS V14.01,2013-01-21 04:30:00,
2013-01-20 23:35:00,27.6,14.4,29.88,West,263,8.0,8.0,57,0.00,,---,0.00,VWS V14.01,2013-01-21 04:35:00,
2013-01-20 23:40:00,27.5,13.5,29.88,West,266,3.0,18.0,55,0.00,,---,0.00,VWS V14.01,2013-01-21 04:40:00,
2013-01-20 23:45:00,27.4,13.4,29.88,WNW,289,16.0,16.0,55,0.00,,---,0.00,VWS V14.01,2013-01-21 04:45:00,
2013-01-20 23:50:00,27.4,12.1,29.88,West,271,5.0,11.0,52,0.00,,---,0.00,VWS V14.01,2013-01-21 04:50:00,
2013-01-20 23:55:00,27.3,11.6,29.88,West,273,6.0,20.0,51,0.00,,---,0.00,VWS V14.01,2013-01-21 04:55:00,